World > North America > United States > Ohio   City of Cincinnati, OH

Cincinnati, Ohio Regional Weather

Lat: 39.14N, Lon: 84.51W
Wx Zone: OHZ077
Warning NWS WEATHER ALERT - (More Info. Click Here) Warning
Feedback

Cincinnati, OH Regional Weather

Expires:202003291300;;251222
ASUS41 KCLE 291202
RWRCLE
OHIO REGIONAL WEATHER ROUNDUP
NATIONAL WEATHER SERVICE CLEVELAND, OH
800 AM EDT SUN MAR 29 2020

NOTE: "FAIR" INDICATES FEW OR NO CLOUDS BELOW 12,000 FEET WITH NO
SIGNIFICANT WEATHER AND/OR OBSTRUCTIONS TO VISIBILITY.


OHZ042-051>053-060>062-070>072-077>081-291300-
  SOUTHWEST OHIO
  
CITY           SKY/WX    TMP DP  RH WIND       PRES   REMARKS
CINC-COVINGTON MOCLDY    64  54  69 SW14G23   29.70R                  
CINC-LUNKEN    MOCLDY    66  58  75 SW13      29.70R                  
HAMILTON       FAIR      66  56  70 SW9G18    29.69R                  
DAYTON         CLOUDY    64  58  80 SW14      29.66R                  
WRIGHT-PAT AFB MOCLDY    65  57  76 SW20      29.66R                  
DAYTON GENERAL MOCLDY    65  58  78 SW17      29.67R                  
WILMINGTON     MOCLDY    65  58  78 SW20G29   29.68R                  
$$


SKY/WX - Weather  TMP - Temperature  DP - Dew Point  RH - Relative Humidity
WIND - Wind Direction/Speed PRES - Barometric Pressure VSB - Visibility
WCI - Wind Chill Index E13G22 Wind - East Wind 13 mph/Gusts of 22 mph
Cincinnati Weather Map
UTC Time: 3/29/2020, 12:14
Your Time: